Time,TemperatureF,DewpointF,PressureIn,WindDirection,WindDirectionDegrees,WindSpeedMPH,WindSpeedGustMPH,Humidity,HourlyPrecipIn,Conditions,Clouds,dailyrainin,SoftwareType,DateUTC
2013-01-05 00:00:00,28.5,24.0,32.47,NE,53,0.0,1.0,84,0.00,,,0.00,weatherlink.com 1.10,2013-01-05 07:00:00,
2013-01-05 00:15:00,28.7,25.0,32.48,NE,53,1.0,2.0,84,0.00,,,0.00,weatherlink.com 1.10,2013-01-05 07:15:00,
2013-01-05 00:30:00,28.5,24.0,32.47,NNW,344,3.0,3.0,83,0.00,,,0.00,weatherlink.com 1.10,2013-01-05 07:30:00,
2013-01-05 00:45:00,29.1,25.0,32.47,NNW,346,3.0,4.0,83,0.00,,,0.00,weatherlink.com 1.10,2013-01-05 07:45:00,
2013-01-05 01:00:00,28.8,25.0,32.47,WNW,289,0.0,4.0,84,0.00,,,0.00,weatherlink.com 1.10,2013-01-05 08:00:00,
2013-01-05 01:15:00,28.9,25.0,32.47,NNE,21,1.0,3.0,84,0.00,,,0.00,weatherlink.com 1.10,2013-01-05 08:15:00,
2013-01-05 01:30:00,29.6,25.0,32.47,North,355,2.0,6.0,83,0.00,,,0.00,weatherlink.com 1.10,2013-01-05 08:30:00,
2013-01-05 01:45:00,29.7,25.0,32.48,NNW,338,3.0,3.0,83,0.00,,,0.00,weatherlink.com 1.10,2013-01-05 08:45:00,
2013-01-05 02:00:00,29.7,25.0,32.48,NW,325,0.0,6.0,83,0.00,,,0.00,weatherlink.com 1.10,2013-01-05 09:00:00,
2013-01-05 02:15:00,29.5,25.0,32.48,NW,325,0.0,0.0,83,0.00,,,0.00,weatherlink.com 1.10,2013-01-05 09:15:00,
2013-01-05 02:30:00,29.4,25.0,32.48,NW,325,1.0,2.0,84,0.00,,,0.00,weatherlink.com 1.10,2013-01-05 09:30:00,
2013-01-05 02:45:00,29.7,25.0,32.48,NW,325,1.0,2.0,83,0.00,,,0.00,weatherlink.com 1.10,2013-01-05 09:45:00,
2013-01-05 03:00:00,29.6,24.0,32.47,ESE,107,3.0,5.0,80,0.00,,,0.00,weatherlink.com 1.10,2013-01-05 10:00:00,
2013-01-05 03:15:00,29.3,24.0,32.48,ESE,107,5.0,7.0,79,0.00,,,0.00,weatherlink.com 1.10,2013-01-05 10:15:00,
2013-01-05 03:30:00,29.0,23.0,32.47,East,88,5.0,5.0,79,0.00,,,0.00,weatherlink.com 1.10,2013-01-05 10:30:00,
2013-01-05 03:45:00,28.8,23.0,32.48,East,92,5.0,7.0,80,0.00,,,0.00,weatherlink.com 1.10,2013-01-05 10:45:00,
2013-01-05 04:00:00,28.2,23.0,32.48,East,98,3.0,7.0,80,0.00,,,0.00,weatherlink.com 1.10,2013-01-05 11:00:00,
2013-01-05 04:15:00,28.3,23.0,32.48,East,90,6.0,7.0,80,0.00,,,0.00,weatherlink.com 1.10,2013-01-05 11:15:00,
2013-01-05 04:30:00,28.0,23.0,32.47,ENE,66,9.0,9.0,80,0.00,,,0.00,weatherlink.com 1.10,2013-01-05 11:30:00,
2013-01-05 04:45:00,28.2,22.0,32.48,East,85,7.0,9.0,79,0.00,,,0.00,weatherlink.com 1.10,2013-01-05 11:45:00,
2013-01-05 05:00:00,27.7,22.0,32.48,East,84,5.0,8.0,80,0.00,,,0.00,weatherlink.com 1.10,2013-01-05 12:00:00,
2013-01-05 05:15:00,27.9,23.0,32.48,East,86,6.0,8.0,80,0.00,,,0.00,weatherlink.com 1.10,2013-01-05 12:15:00,
2013-01-05 05:30:00,28.3,22.0,32.48,East,98,6.0,9.0,78,0.00,,,0.00,weatherlink.com 1.10,2013-01-05 12:30:00,
2013-01-05 05:45:00,27.8,22.0,32.48,ESE,121,4.0,7.0,79,0.00,,,0.00,weatherlink.com 1.10,2013-01-05 12:45:00,
2013-01-05 06:00:00,27.8,22.0,32.48,East,95,3.0,7.0,79,0.00,,,0.00,weatherlink.com 1.10,2013-01-05 13:00:00,
2013-01-05 06:15:00,27.7,22.0,32.48,East,96,3.0,5.0,79,0.00,,,0.00,weatherlink.com 1.10,2013-01-05 13:15:00,
2013-01-05 06:30:00,27.3,22.0,32.47,ENE,76,4.0,7.0,80,0.00,,,0.00,weatherlink.com 1.10,2013-01-05 13:30:00,
2013-01-05 06:45:00,27.5,22.0,32.48,East,82,2.0,7.0,79,0.00,,,0.00,weatherlink.com 1.10,2013-01-05 13:45:00,
2013-01-05 07:00:00,27.1,22.0,32.47,East,80,7.0,8.0,80,0.00,,,0.00,weatherlink.com 1.10,2013-01-05 14:00:00,
2013-01-05 07:15:00,27.0,22.0,32.47,East,96,8.0,10.0,80,0.00,,,0.00,weatherlink.com 1.10,2013-01-05 14:15:00,
2013-01-05 07:30:00,27.1,22.0,32.47,East,82,7.0,9.0,80,0.00,,,0.00,weatherlink.com 1.10,2013-01-05 14:30:00,
2013-01-05 07:45:00,27.4,22.0,32.47,ESE,107,7.0,10.0,80,0.00,,,0.00,weatherlink.com 1.10,2013-01-05 14:45:00,
2013-01-05 08:00:00,27.2,22.0,32.47,East,82,8.0,9.0,80,0.00,,,0.00,weatherlink.com 1.10,2013-01-05 15:00:00,
2013-01-05 08:15:00,27.8,22.0,32.47,East,91,8.0,9.0,78,0.00,,,0.00,weatherlink.com 1.10,2013-01-05 15:15:00,
2013-01-05 08:30:00,27.9,22.0,32.47,ESE,114,7.0,9.0,79,0.00,,,0.00,weatherlink.com 1.10,2013-01-05 15:30:00,
2013-01-05 08:45:00,28.1,22.0,32.47,East,100,5.0,8.0,78,0.00,,,0.00,weatherlink.com 1.10,2013-01-05 15:45:00,
2013-01-05 09:00:00,28.1,22.0,32.47,East,84,7.0,8.0,78,0.00,,,0.00,weatherlink.com 1.10,2013-01-05 16:00:00,
2013-01-05 09:15:00,28.5,22.0,32.47,East,88,8.0,9.0,78,0.00,,,0.00,weatherlink.com 1.10,2013-01-05 16:15:00,
2013-01-05 09:30:00,29.0,23.0,32.47,ESE,119,7.0,9.0,77,0.00,,,0.00,weatherlink.com 1.10,2013-01-05 16:30:00,
2013-01-05 09:45:00,29.2,23.0,32.47,ESE,121,5.0,10.0,76,0.00,,,0.00,weatherlink.com 1.10,2013-01-05 16:45:00,
2013-01-05 10:00:00,28.9,22.0,32.47,ESE,122,9.0,10.0,76,0.00,,,0.00,weatherlink.com 1.10,2013-01-05 17:00:00,
2013-01-05 10:16:00,28.2,22.0,32.47,SE,143,6.0,10.0,76,0.00,,,0.00,weatherlink.com 1.10,2013-01-05 17:16:00,
2013-01-05 10:31:00,28.4,22.0,32.47,ESE,116,7.0,10.0,76,0.00,,,0.00,weatherlink.com 1.10,2013-01-05 17:31:00,
2013-01-05 10:46:00,28.3,22.0,32.47,ESE,105,10.0,11.0,76,0.00,,,0.00,weatherlink.com 1.10,2013-01-05 17:46:00,
2013-01-05 11:01:00,28.7,22.0,32.46,ESE,109,7.0,11.0,75,0.00,,,0.00,weatherlink.com 1.10,2013-01-05 18:01:00,
2013-01-05 11:16:00,29.0,22.0,32.45,ESE,116,8.0,12.0,76,0.00,,,0.00,weatherlink.com 1.10,2013-01-05 18:16:00,
2013-01-05 11:31:00,29.6,23.0,32.44,SE,131,7.0,12.0,75,0.00,,,0.00,weatherlink.com 1.10,2013-01-05 18:31:00,
2013-01-05 11:46:00,30.1,23.0,32.43,SE,129,8.0,11.0,74,0.00,,,0.00,weatherlink.com 1.10,2013-01-05 18:46:00,
2013-01-05 12:01:00,30.2,23.0,32.42,SE,133,7.0,11.0,74,0.00,,,0.00,weatherlink.com 1.10,2013-01-05 19:01:00,
2013-01-05 12:16:00,29.9,23.0,32.41,ESE,119,7.0,10.0,74,0.00,,,0.00,weatherlink.com 1.10,2013-01-05 19:16:00,
2013-01-05 12:31:00,30.7,23.0,32.40,ESE,115,7.0,10.0,73,0.00,,,0.00,weatherlink.com 1.10,2013-01-05 19:31:00,
2013-01-05 12:46:00,30.2,23.0,32.39,SE,137,5.0,9.0,73,0.00,,,0.00,weatherlink.com 1.10,2013-01-05 19:46:00,
2013-01-05 13:01:00,30.3,23.0,32.38,ESE,114,5.0,10.0,73,0.00,,,0.00,weatherlink.com 1.10,2013-01-05 20:01:00,
2013-01-05 13:16:00,30.4,22.0,32.37,ESE,110,7.0,11.0,71,0.00,,,0.00,weatherlink.com 1.10,2013-01-05 20:16:00,
2013-01-05 13:31:00,30.6,23.0,32.36,SE,126,8.0,9.0,72,0.00,,,0.00,weatherlink.com 1.10,2013-01-05 20:31:00,
2013-01-05 13:46:00,31.8,23.0,32.35,East,100,3.0,9.0,71,0.00,,,0.00,weatherlink.com 1.10,2013-01-05 20:46:00,
2013-01-05 14:01:00,32.2,23.0,32.34,SE,130,5.0,9.0,68,0.00,,,0.00,weatherlink.com 1.10,2013-01-05 21:01:00,
2013-01-05 14:16:00,32.5,23.0,32.33,SE,131,3.0,8.0,67,0.00,,,0.00,weatherlink.com 1.10,2013-01-05 21:16:00,
2013-01-05 14:31:00,32.5,23.0,32.32,ESE,115,5.0,8.0,67,0.00,,,0.00,weatherlink.com 1.10,2013-01-05 21:31:00,
2013-01-05 14:46:00,31.8,22.0,32.32,ESE,119,7.0,9.0,67,0.00,,,0.00,weatherlink.com 1.10,2013-01-05 21:46:00,
2013-01-05 15:01:00,31.6,22.0,32.32,ESE,123,5.0,8.0,68,0.00,,,0.00,weatherlink.com 1.10,2013-01-05 22:01:00,
2013-01-05 15:16:00,32.3,22.0,32.31,East,90,6.0,7.0,66,0.00,,,0.00,weatherlink.com 1.10,2013-01-05 22:16:00,
2013-01-05 15:32:00,33.1,22.0,32.31,ESE,105,4.0,8.0,64,0.00,,,0.00,weatherlink.com 1.10,2013-01-05 22:32:00,
2013-01-05 15:47:00,33.7,22.0,32.31,East,96,6.0,10.0,62,0.00,,,0.00,weatherlink.com 1.10,2013-01-05 22:47:00,
2013-01-05 16:02:00,33.3,21.0,32.31,ESE,103,5.0,11.0,61,0.00,,,0.00,weatherlink.com 1.10,2013-01-05 23:02:00,
2013-01-05 16:17:00,32.4,21.0,32.31,ESE,103,5.0,9.0,63,0.00,,,0.00,weatherlink.com 1.10,2013-01-05 23:17:00,
2013-01-05 16:32:00,32.3,21.0,32.30,ESE,122,2.0,7.0,64,0.00,,,0.00,weatherlink.com 1.10,2013-01-05 23:32:00,
2013-01-05 16:47:00,30.6,21.0,32.30,East,97,3.0,3.0,67,0.00,,,0.00,weatherlink.com 1.10,2013-01-05 23:47:00,
2013-01-05 17:02:00,31.3,21.0,32.30,SE,140,0.0,3.0,65,0.00,,,0.00,weatherlink.com 1.10,2013-01-06 00:02:00,
2013-01-05 17:17:00,30.1,21.0,32.29,SE,143,0.0,1.0,68,0.00,,,0.00,weatherlink.com 1.10,2013-01-06 00:17:00,
2013-01-05 17:32:00,29.6,21.0,32.29,SE,143,1.0,2.0,69,0.00,,,0.00,weatherlink.com 1.10,2013-01-06 00:32:00,
2013-01-05 17:47:00,29.7,20.0,32.29,NW,306,2.0,3.0,68,0.00,,,0.00,weatherlink.com 1.10,2013-01-06 00:47:00,
2013-01-05 18:02:00,30.5,20.0,32.29,NW,304,1.0,4.0,66,0.00,,,0.00,weatherlink.com 1.10,2013-01-06 01:02:00,
2013-01-05 18:17:00,30.5,20.0,32.29,NW,304,0.0,0.0,66,0.00,,,0.00,weatherlink.com 1.10,2013-01-06 01:17:00,
2013-01-05 18:32:00,30.7,20.0,32.29,NW,304,0.0,0.0,65,0.00,,,0.00,weatherlink.com 1.10,2013-01-06 01:32:00,
2013-01-05 18:47:00,30.3,20.0,32.29,NW,304,0.0,2.0,67,0.00,,,0.00,weatherlink.com 1.10,2013-01-06 01:47:00,
2013-01-05 19:02:00,30.0,20.0,32.29,NW,304,2.0,3.0,67,0.00,,,0.00,weatherlink.com 1.10,2013-01-06 02:02:00,
2013-01-05 19:17:00,29.9,20.0,32.29,NW,304,0.0,3.0,68,0.00,,,0.00,weatherlink.com 1.10,2013-01-06 02:17:00,
2013-01-05 19:32:00,29.0,20.0,32.28,NW,304,1.0,2.0,70,0.00,,,0.00,weatherlink.com 1.10,2013-01-06 02:32:00,
2013-01-05 19:47:00,28.5,21.0,32.28,NW,304,1.0,2.0,72,0.00,,,0.00,weatherlink.com 1.10,2013-01-06 02:47:00,
2013-01-05 20:02:00,28.4,20.0,32.27,ENE,71,3.0,3.0,72,0.00,,,0.00,weatherlink.com 1.10,2013-01-06 03:02:00,
2013-01-05 20:17:00,28.8,20.0,32.28,ENE,72,1.0,3.0,71,0.00,,,0.00,weatherlink.com 1.10,2013-01-06 03:17:00,
2013-01-05 20:32:00,27.6,20.0,32.27,ENE,74,0.0,2.0,74,0.00,,,0.00,weatherlink.com 1.10,2013-01-06 03:32:00,
2013-01-05 20:47:00,27.2,20.0,32.27,ENE,74,0.0,2.0,75,0.00,,,0.00,weatherlink.com 1.10,2013-01-06 03:47:00,
2013-01-05 21:02:00,26.7,20.0,32.26,North,355,0.0,3.0,76,0.00,,,0.00,weatherlink.com 1.10,2013-01-06 04:02:00,
2013-01-05 21:17:00,27.0,20.0,32.27,East,90,1.0,3.0,76,0.00,,,0.00,weatherlink.com 1.10,2013-01-06 04:17:00,
2013-01-05 21:32:00,26.5,20.0,32.27,ESE,112,3.0,4.0,77,0.00,,,0.00,weatherlink.com 1.10,2013-01-06 04:32:00,
2013-01-05 21:47:00,27.1,20.0,32.26,ESE,113,3.0,7.0,76,0.00,,,0.00,weatherlink.com 1.10,2013-01-06 04:47:00,
2013-01-05 22:02:00,28.0,20.0,32.26,WNW,292,4.0,4.0,73,0.00,,,0.00,weatherlink.com 1.10,2013-01-06 05:02:00,
2013-01-05 22:17:00,26.8,20.0,32.26,ENE,59,2.0,3.0,76,0.00,,,0.00,weatherlink.com 1.10,2013-01-06 05:17:00,
2013-01-05 22:32:00,27.6,20.0,32.26,ESE,111,2.0,4.0,74,0.00,,,0.00,weatherlink.com 1.10,2013-01-06 05:32:00,
2013-01-05 22:47:00,28.4,20.0,32.25,SE,140,0.0,4.0,72,0.00,,,0.00,weatherlink.com 1.10,2013-01-06 05:47:00,
2013-01-05 23:02:00,27.8,21.0,32.25,East,96,7.0,8.0,74,0.00,,,0.00,weatherlink.com 1.10,2013-01-06 06:02:00,
2013-01-05 23:17:00,29.0,20.0,32.24,East,89,5.0,10.0,70,0.00,,,0.00,weatherlink.com 1.10,2013-01-06 06:17:00,
2013-01-05 23:32:00,26.5,20.0,32.24,ESE,117,5.0,8.0,76,0.00,,,0.00,weatherlink.com 1.10,2013-01-06 06:32:00,
2013-01-05 23:47:00,27.0,20.0,32.24,ESE,107,5.0,7.0,76,0.00,,,0.00,weatherlink.com 1.10,2013-01-06 06:47:00,